Vorticity
12 13 14 14 13 12 11 10 10 9 9 8 8 8 8 8 7 6 4 4 3 3 3 3 3 5 7 10 13 13 11 8 7 7 9 15 20 21 20 13 -5 -14 -14 -5 7 16 19 15 7 5 5 5 5 5 5 5 4 3 2 1 -0 -0 -0 -0 0 1 2 3 4
11 12 13 14 14 13 12 11 10 10 10 10 10 9 9 9 7 5 5 5 4 4 4 4 4 6 8 12 13 13 10 7 6 7 12 18 22 22 18 7 -9 -13 -8 2 13 18 18 10 6 5 5 4 4 4 4 4 4 3 2 0 -0 -1 -1 -0 0 1 2 3 3
10 11 12 13 13 13 13 13 12 11 11 11 11 10 10 9 7 6 5 5 4 4 4 5 5 7 9 13 14 13 11 8 7 10 15 20 23 22 14 -1 -10 -8 -0 11 18 18 13 7 6 5 5 3 4 4 4 4 3 2 1 0 -1 -1 -1 -1 -0 1 1 2 2
9 9 10 11 12 13 14 14 14 13 13 12 12 12 11 10 9 7 7 6 5 5 5 6 7 9 11 13 14 13 12 10 11 14 18 22 23 17 7 -5 -6 1 11 21 19 14 9 7 7 6 5 3 3 4 4 3 3 2 1 0 -1 -1 -1 -0 -0 0 1 2 2
7 8 9 10 12 13 14 14 14 13 13 12 12 12 12 11 10 9 8 7 7 7 7 8 10 11 13 14 14 13 11 11 15 18 22 24 19 10 1 -3 3 12 18 19 12 8 7 8 8 7 4 3 3 4 3 3 2 2 1 0 -0 -1 -1 -0 0 0 1 1 1
8 8 10 11 12 13 13 13 13 12 12 12 12 12 11 11 10 10 9 8 8 9 10 11 12 13 13 15 14 13 11 12 18 23 25 20 10 2 -1 3 12 16 15 8 6 7 8 10 8 6 3 3 4 4 4 3 2 2 1 0 -0 -0 -0 0 0 0 0 0 0
9 10 10 12 13 13 13 13 13 12 11 11 11 11 10 10 10 9 8 7 9 10 12 12 13 13 14 15 14 12 13 16 23 24 20 9 1 -0 3 11 14 11 7 4 6 9 11 11 7 4 2 3 4 4 3 3 2 1 1 0 0 0 0 1 1 1 0 -0 -0
10 11 12 13 13 13 13 14 14 12 11 12 11 10 10 9 8 7 7 7 10 12 13 13 13 14 14 15 14 15 17 22 23 18 10 2 2 6 10 13 9 4 3 6 10 11 11 10 6 3 3 4 4 4 3 2 2 1 1 1 0 1 1 1 1 1 -0 -2 -1
11 12 14 15 15 14 15 18 16 13 10 10 10 10 9 7 6 6 6 9 11 12 13 13 13 14 15 15 16 18 21 23 17 10 4 4 8 12 12 9 2 1 4 10 12 12 10 6 4 4 4 4 4 3 2 2 1 1 1 1 1 1 1 1 0 -1 -2 -2 0
11 12 14 15 15 16 18 21 19 13 7 7 8 8 7 6 5 6 8 10 12 12 13 13 14 14 15 16 17 19 20 18 11 7 6 8 12 13 11 6 2 4 7 11 12 11 8 4 4 4 5 5 4 3 2 2 2 2 2 2 2 2 2 1 -1 -2 -2 -1 2
10 11 12 13 14 17 20 22 18 10 4 6 7 6 5 4 5 6 9 11 12 13 13 14 14 15 16 17 18 18 16 13 9 8 8 10 12 12 11 8 7 7 8 10 11 9 6 4 4 4 4 5 4 3 2 2 2 3 3 3 3 2 2 1 -1 -2 -2 1 3
11 11 11 12 15 19 23 24 13 5 3 6 7 6 5 4 6 7 9 11 12 13 14 15 15 16 16 16 16 15 13 11 9 9 9 10 11 13 13 11 9 8 8 9 10 8 5 4 4 4 4 4 3 2 2 2 3 3 3 3 3 2 1 -1 -2 -1 0 3 4
13 12 12 12 17 21 23 19 6 2 4 8 7 6 5 5 7 8 10 11 12 14 15 15 16 15 15 14 13 12 12 10 8 7 8 10 12 14 14 10 7 6 7 10 9 7 5 4 4 4 4 3 2 2 2 2 3 3 3 3 2 0 -1 -2 -2 0 2 4 3
14 14 14 15 20 23 20 10 1 2 8 11 9 7 6 6 8 9 10 12 13 15 15 15 15 14 13 12 11 11 10 9 7 7 9 12 14 14 11 6 4 6 9 11 8 6 4 4 4 4 3 2 2 2 2 2 3 3 3 2 0 -1 -2 -2 -0 2 3 3 2
17 17 18 21 23 20 11 -1 -0 5 11 13 11 9 8 8 8 9 11 13 14 15 15 15 14 13 12 11 11 11 10 9 9 10 12 14 13 10 7 3 5 8 10 10 7 5 4 4 4 3 2 2 2 2 3 3 3 2 2 0 -1 -1 -1 0 2 3 3 2 2
20 20 23 27 19 9 1 -1 6 11 14 14 12 10 8 8 9 10 12 13 15 15 15 14 13 12 12 12 12 12 11 10 11 12 12 12 9 6 5 5 8 10 10 9 6 5 4 4 3 2 2 2 2 3 3 3 2 2 0 -1 -1 -0 1 3 3 3 2 2 3
23 24 24 20 7 1 1 8 13 16 16 14 11 10 9 9 10 11 13 15 15 15 14 14 13 12 11 12 13 13 12 12 12 10 9 8 7 7 7 9 10 10 9 7 5 4 3 3 2 1 1 2 3 3 3 3 2 1 0 0 1 2 3 3 3 2 2 3 6
27 23 14 2 -0 3 9 16 17 17 15 12 10 9 9 10 11 13 14 16 16 15 14 14 13 11 11 12 12 12 13 12 11 8 7 6 7 9 10 11 11 10 8 6 4 3 2 0 0 1 2 3 3 3 3 2 2 1 1 2 3 3 3 3 2 2 4 6 9
22 9 -2 -6 2 10 16 19 18 15 13 10 9 9 10 11 12 14 15 16 16 15 14 12 10 11 12 13 12 12 13 11 7 5 4 6 9 11 12 12 11 9 6 4 2 1 0 -0 1 2 3 4 3 3 2 2 2 2 2 3 3 3 2 2 3 4 6 9 11
6 -5 -7 1 10 16 19 18 16 13 11 10 9 10 11 12 14 15 16 16 16 15 13 11 9 10 13 15 14 13 11 8 3 2 4 8 12 14 14 12 9 6 4 2 0 -0 -0 1 3 4 5 4 3 3 2 2 2 2 2 2 2 2 2 3 5 7 9 11 12
-7 -6 2 12 17 19 18 16 13 11 10 9 10 11 13 14 15 16 17 17 16 14 13 11 9 10 13 15 15 13 9 5 3 4 8 13 16 15 12 9 6 3 1 -0 -1 -0 1 4 5 5 4 3 3 2 2 2 2 2 2 1 1 2 3 5 8 10 11 12 12
-6 3 12 18 19 18 16 13 11 9 9 9 11 13 14 15 17 18 18 17 15 13 11 10 10 12 13 14 15 13 9 7 7 8 11 14 13 11 8 5 2 1 -1 -1 -1 1 3 5 5 4 3 2 2 2 1 1 1 1 1 1 2 4 6 9 10 12 12 12 12
5 13 18 19 17 15 12 10 9 8 9 11 13 15 16 17 18 18 17 15 13 11 10 10 12 12 13 13 13 12 10 9 9 9 10 11 9 7 4 2 1 -1 -1 -1 1 3 5 5 4 3 2 2 1 1 1 1 0 1 1 3 5 7 9 11 12 12 13 12 12
15 18 18 16 12 10 8 8 9 10 13 15 16 17 17 18 18 17 16 13 11 10 10 11 12 12 12 11 12 11 9 7 6 6 7 7 6 4 2 1 -1 -1 -1 0 3 5 5 4 3 2 2 1 1 1 1 0 1 2 4 6 8 10 11 12 13 13 13 12 12
18 17 14 10 8 8 8 9 12 15 17 18 17 17 16 17 16 15 13 10 10 10 11 12 12 11 11 11 10 7 4 5 6 5 4 4 4 3 1 -0 -2 -1 0 3 5 5 4 3 2 2 2 1 1 1 1 1 3 5 7 8 10 11 12 13 13 13 12 11 11
14 12 10 9 9 10 12 15 17 18 18 17 16 16 16 15 13 12 11 10 10 12 13 13 12 10 8 7 4 4 7 13 9 5 3 3 3 2 -0 -2 -2 0 2 4 4 4 3 2 2 2 1 1 1 1 2 3 5 7 9 10 11 12 12 12 12 12 11 11 10
11 11 11 11 12 14 16 19 18 18 16 14 14 15 14 13 13 12 11 11 12 13 13 12 9 7 6 6 9 12 14 12 7 5 4 3 1 -1 -2 -2 -0 2 4 4 4 3 3 2 2 1 1 0 1 2 4 6 8 10 11 12 13 13 13 12 11 10 10 10 10
13 13 14 14 16 18 19 18 17 15 14 15 16 15 14 13 12 10 10 11 13 13 12 10 8 9 12 15 16 13 9 6 5 4 3 1 -1 -2 -2 -1 2 4 5 5 5 4 3 2 1 1 0 1 2 4 6 8 10 11 12 13 13 13 12 11 10 10 10 10 10
16 16 17 18 19 19 18 15 14 14 14 14 14 14 13 11 9 9 10 12 13 12 10 11 11 12 13 14 11 8 6 5 3 1 -0 -2 -3 -2 0 3 6 7 7 7 5 4 2 1 0 0 1 3 5 7 9 10 11 13 13 14 13 12 11 10 10 10 10 10 10
17 18 19 20 18 16 14 12 12 12 12 12 12 12 11 9 8 9 10 10 8 8 8 9 10 12 13 13 9 7 5 3 1 -1 -2 -3 -1 2 5 8 9 8 7 5 3 2 1 0 0 2 3 6 8 10 11 12 13 13 13 13 11 10 10 10 10 10 10 10 10
18 18 18 16 13 12 12 13 13 12 11 11 11 10 9 8 7 8 7 6 5 6 8 10 14 16 15 11 7 4 1 -1 -2 -2 -1 1 5 8 9 10 8 6 4 3 1 0 0 1 2 4 7 9 11 12 13 13 14 13 12 11 10 10 10 10 10 10 10 9 9
17 16 13 11 11 13 15 15 12 10 9 9 8 7 7 7 8 7 7 6 7 10 14 19 19 16 10 4 1 -0 -1 -1 -0 2 4 7 10 10 10 8 6 4 2 1 0 1 2 3 6 8 10 11 12 13 14 14 13 12 10 10 10 10 10 10 10 10 9 9 8
13 11 11 12 15 17 17 13 8 6 5 6 7 8 8 9 9 9 10 15 19 22 22 19 11 4 -1 -3 -2 -0 1 3 5 7 9 11 10 9 7 4 2 1 0 0 1 3 5 7 9 10 12 13 13 14 13 12 11 10 10 10 10 10 10 10 10 9 9 8 8
10 10 13 16 17 16 13 8 4 3 3 5 8 11 13 14 15 19 23 26 24 18 10 2 -2 -3 -1 2 4 5 7 8 10 10 10 9 7 5 3 1 1 0 1 2 4 6 8 10 11 12 13 14 13 13 11 10 10 10 10 10 10 10 10 10 9 9 8 7 7
11 12 14 15 14 12 9 4 2 1 2 6 11 16 22 26 29 28 24 13 5 -0 -3 -2 1 5 7 9 9 9 9 10 9 8 6 4 3 1 1 0 1 2 3 5 7 9 11 12 13 13 13 13 12 11 10 10 10 10 10 10 10 10 9 9 9 8 8 7 7
13 12 12 12 11 9 6 2 1 2 5 11 17 22 24 23 17 9 1 -4 -4 -1 4 8 10 11 11 10 10 9 7 6 5 3 2 1 1 0 1 1 3 5 7 8 10 12 13 13 13 13 12 11 10 10 10 10 10 10 10 10 9 9 9 8 8 8 8 8 8
11 10 10 11 11 9 7 5 7 10 15 20 19 16 11 5 1 -0 0 3 7 10 12 11 11 10 9 7 6 5 4 3 2 1 0 1 1 2 3 4 6 8 10 12 12 13 13 13 12 11 10 10 10 10 10 10 10 10 10 9 9 8 8 8 7 7 7 8 8
7 9 12 15 16 17 18 19 21 21 19 15 9 5 3 4 6 9 11 13 13 12 10 9 8 7 6 4 3 2 2 2 1 1 1 2 3 5 6 8 10 11 12 13 13 12 12 11 10 10 10 10 10 10 10 10 9 9 9 8 8 8 8 8 7 8 8 8 8
6 11 16 20 25 28 29 27 22 15 8 3 3 5 8 12 14 14 14 13 12 10 8 6 6 5 3 2 2 2 2 2 2 3 3 4 6 8 10 11 12 13 12 12 11 11 10 10 9 10 10 10 10 10 10 9 8 8 8 8 7 7 8 8 8 8 8 9 9
16 18 21 25 27 26 21 14 8 5 4 6 9 11 13 13 13 12 10 9 8 7 6 5 4 3 2 2 2 2 2 2 4 5 6 8 10 11 12 13 12 12 11 11 10 10 10 10 10 10 10 10 10 9 9 8 7 7 7 8 7 7 7 8 8 9 9 9 10
27 23 20 19 15 11 7 5 7 9 11 12 13 12 11 10 8 7 6 6 6 5 5 4 3 3 2 3 3 3 4 5 6 8 10 11 12 12 12 12 11 11 10 10 10 10 10 10 10 10 10 10 9 8 8 7 7 7 7 7 7 7 7 8 9 10 10 10 11
Height
3055 3057 3060 3063 3065 3067 3069 3071 3072 3074 3075 3076 3078 3079 3080 3082 3083 3083 3084 3085 3085 3086 3087 3087 3088 3088 3089 3089 3089 3089 3089 3089 3089 3089 3089 3089 3090 3090 3090 3090 3089 3090 3090 3091 3091 3091 3091 3090 3090 3090 3090 3090 3091 3091 3091 3091 3091 3090 3090 3090 3089 3089 3088 3088 3087 3086 3085 3084 3084
3053 3055 3058 3060 3063 3064 3066 3068 3069 3071 3072 3074 3075 3077 3078 3079 3080 3081 3082 3082 3083 3084 3084 3085 3085 3086 3086 3087 3087 3087 3086 3086 3087 3087 3087 3087 3088 3088 3088 3088 3088 3088 3089 3089 3089 3089 3089 3089 3088 3088 3088 3089 3089 3089 3089 3089 3089 3089 3088 3088 3087 3087 3086 3085 3085 3084 3083 3082 3081
3050 3053 3056 3058 3060 3062 3064 3065 3067 3069 3070 3071 3073 3074 3076 3077 3078 3078 3079 3080 3081 3081 3082 3083 3083 3084 3084 3084 3084 3084 3084 3084 3084 3084 3084 3084 3085 3085 3085 3085 3086 3087 3087 3087 3087 3087 3087 3087 3087 3086 3087 3087 3087 3087 3087 3087 3087 3087 3086 3086 3085 3084 3084 3083 3082 3082 3081 3080 3079
3049 3051 3054 3055 3057 3059 3061 3063 3064 3066 3068 3069 3070 3072 3073 3074 3075 3076 3077 3078 3078 3079 3079 3080 3081 3081 3081 3082 3082 3082 3082 3082 3082 3082 3082 3082 3083 3083 3084 3084 3085 3085 3085 3085 3085 3085 3085 3085 3085 3085 3085 3085 3085 3085 3085 3085 3085 3084 3084 3084 3083 3082 3081 3081 3080 3079 3078 3077 3076
3046 3049 3051 3053 3055 3057 3059 3061 3062 3064 3065 3066 3068 3069 3070 3071 3072 3073 3074 3075 3076 3077 3077 3078 3078 3079 3079 3079 3080 3080 3080 3080 3080 3080 3080 3081 3081 3082 3082 3083 3083 3083 3083 3082 3083 3083 3083 3083 3083 3083 3083 3083 3083 3083 3083 3083 3083 3083 3082 3081 3080 3080 3079 3078 3077 3077 3076 3075 3074
3044 3047 3049 3051 3053 3055 3056 3058 3060 3061 3062 3064 3065 3066 3068 3069 3069 3070 3071 3072 3074 3074 3075 3075 3075 3076 3077 3077 3077 3078 3078 3078 3078 3079 3079 3079 3080 3081 3081 3081 3081 3080 3080 3080 3081 3082 3081 3081 3081 3081 3081 3081 3081 3081 3081 3081 3081 3080 3080 3079 3078 3077 3077 3076 3075 3074 3073 3072 3071
3043 3045 3047 3049 3051 3052 3054 3055 3056 3058 3059 3061 3063 3064 3065 3066 3067 3068 3069 3070 3071 3072 3072 3072 3073 3074 3074 3075 3075 3075 3075 3076 3076 3076 3077 3078 3079 3079 3079 3079 3079 3078 3079 3079 3080 3079 3079 3079 3079 3079 3079 3079 3079 3079 3079 3079 3079 3078 3077 3077 3076 3075 3074 3073 3073 3072 3071 3070 3069
3041 3043 3044 3046 3048 3049 3051 3052 3053 3054 3056 3058 3059 3061 3062 3063 3064 3065 3066 3068 3068 3069 3069 3070 3070 3071 3072 3072 3072 3073 3073 3073 3074 3075 3075 3076 3077 3077 3077 3076 3076 3076 3077 3078 3078 3077 3077 3077 3078 3078 3078 3078 3077 3077 3077 3077 3076 3076 3075 3074 3074 3073 3072 3071 3070 3069 3069 3068 3066
3039 3040 3042 3044 3045 3047 3048 3049 3050 3051 3053 3054 3056 3058 3059 3060 3062 3063 3064 3065 3066 3066 3067 3067 3068 3069 3069 3070 3070 3070 3071 3071 3072 3073 3074 3074 3074 3074 3074 3074 3074 3075 3075 3076 3075 3075 3075 3076 3076 3076 3076 3075 3075 3075 3075 3074 3074 3073 3073 3072 3071 3070 3069 3069 3068 3067 3066 3065 3064
3036 3038 3039 3041 3043 3044 3045 3046 3048 3049 3051 3052 3054 3055 3057 3058 3059 3060 3061 3062 3063 3064 3064 3065 3066 3066 3067 3068 3068 3068 3069 3070 3071 3071 3071 3072 3072 3072 3072 3072 3073 3073 3074 3074 3073 3073 3074 3074 3074 3074 3074 3074 3073 3073 3073 3072 3072 3071 3070 3069 3069 3068 3067 3066 3065 3064 3064 3063 3061
3034 3036 3037 3039 3040 3041 3042 3044 3046 3048 3049 3050 3052 3053 3054 3055 3057 3058 3059 3060 3060 3061 3062 3063 3063 3064 3065 3065 3066 3066 3067 3068 3069 3069 3069 3069 3070 3070 3070 3071 3071 3071 3071 3071 3071 3071 3072 3072 3072 3072 3072 3071 3071 3071 3070 3070 3069 3069 3068 3067 3066 3065 3064 3064 3063 3062 3061 3060 3059
3032 3033 3035 3036 3037 3038 3039 3042 3044 3045 3046 3048 3049 3050 3052 3053 3054 3056 3056 3057 3058 3059 3060 3060 3061 3062 3063 3063 3064 3064 3065 3066 3066 3066 3067 3067 3068 3068 3069 3069 3069 3069 3069 3069 3069 3069 3070 3070 3070 3070 3069 3069 3069 3069 3068 3068 3067 3066 3065 3065 3064 3063 3062 3061 3060 3059 3059 3058 3056
3029 3031 3032 3033 3034 3035 3038 3040 3041 3043 3044 3045 3047 3048 3049 3051 3052 3053 3054 3055 3056 3057 3058 3058 3059 3060 3061 3061 3062 3062 3063 3063 3064 3064 3064 3065 3066 3066 3067 3067 3067 3067 3067 3066 3067 3067 3068 3068 3068 3068 3068 3067 3067 3067 3066 3065 3065 3064 3063 3062 3062 3061 3060 3059 3058 3057 3056 3055 3053
3027 3028 3029 3029 3031 3033 3036 3038 3039 3040 3042 3043 3044 3046 3047 3049 3050 3051 3052 3053 3054 3054 3055 3056 3057 3058 3059 3059 3059 3060 3060 3061 3061 3062 3062 3063 3063 3064 3064 3064 3064 3064 3064 3064 3065 3066 3066 3066 3066 3066 3066 3065 3065 3065 3064 3064 3063 3062 3061 3060 3059 3058 3057 3056 3055 3054 3053 3052 3050
3024 3025 3026 3027 3029 3031 3033 3035 3037 3039 3040 3041 3043 3044 3045 3046 3048 3049 3050 3051 3051 3052 3053 3054 3055 3056 3056 3057 3057 3058 3058 3059 3059 3060 3060 3060 3061 3061 3062 3062 3062 3062 3063 3063 3064 3064 3064 3064 3064 3064 3064 3064 3063 3063 3062 3061 3060 3059 3059 3058 3057 3056 3055 3054 3053 3052 3050 3049 3047
3021 3022 3023 3025 3027 3029 3032 3034 3036 3037 3038 3039 3040 3042 3043 3044 3045 3046 3048 3049 3049 3050 3052 3053 3053 3054 3054 3055 3055 3056 3057 3057 3058 3059 3059 3059 3059 3059 3060 3060 3060 3061 3061 3062 3062 3062 3062 3063 3063 3062 3062 3062 3061 3060 3060 3059 3058 3057 3056 3055 3054 3053 3052 3051 3050 3049 3047 3046 3044
3018 3020 3022 3024 3026 3029 3031 3033 3034 3035 3036 3037 3039 3040 3041 3042 3043 3044 3045 3047 3048 3049 3050 3051 3051 3052 3052 3053 3054 3054 3055 3056 3057 3057 3058 3057 3057 3058 3058 3059 3059 3059 3060 3060 3060 3061 3061 3061 3060 3060 3060 3059 3059 3058 3058 3057 3056 3055 3054 3053 3052 3051 3050 3049 3047 3046 3044 3043 3041
3017 3019 3021 3024 3026 3028 3029 3031 3032 3033 3034 3035 3037 3038 3039 3040 3041 3043 3044 3045 3046 3047 3048 3049 3049 3050 3051 3052 3052 3053 3054 3054 3055 3056 3056 3056 3056 3057 3057 3058 3058 3058 3058 3059 3059 3059 3059 3059 3059 3058 3058 3057 3057 3056 3055 3054 3053 3052 3051 3050 3049 3048 3047 3046 3044 3043 3041 3040 3038
3017 3019 3021 3023 3025 3026 3028 3029 3030 3031 3033 3034 3035 3036 3037 3039 3040 3041 3042 3043 3044 3045 3046 3047 3048 3049 3049 3050 3051 3052 3052 3053 3053 3054 3054 3055 3055 3056 3056 3056 3056 3056 3057 3057 3057 3057 3057 3057 3056 3056 3056 3055 3054 3054 3053 3052 3051 3050 3049 3048 3047 3045 3044 3043 3042 3040 3038 3037 3035
3017 3019 3021 3022 3024 3025 3026 3027 3028 3029 3031 3032 3033 3034 3036 3037 3038 3039 3040 3042 3043 3044 3045 3045 3046 3047 3048 3049 3049 3050 3051 3051 3051 3052 3053 3053 3054 3054 3054 3054 3055 3055 3055 3055 3055 3055 3055 3054 3054 3054 3054 3053 3052 3051 3050 3049 3048 3047 3046 3045 3044 3043 3041 3040 3039 3037 3035 3034 3032
3016 3018 3020 3021 3022 3023 3024 3025 3026 3028 3029 3030 3032 3033 3034 3035 3037 3038 3039 3040 3041 3042 3043 3043 3044 3045 3046 3047 3047 3048 3049 3049 3049 3050 3051 3051 3052 3053 3053 3053 3053 3053 3053 3054 3053 3053 3053 3052 3052 3052 3051 3050 3049 3049 3048 3047 3046 3045 3044 3043 3041 3040 3039 3037 3035 3034 3032 3030 3029
3015 3017 3018 3019 3020 3021 3022 3023 3024 3026 3027 3029 3030 3031 3033 3034 3035 3037 3038 3038 3039 3040 3040 3041 3042 3043 3044 3045 3046 3046 3047 3047 3048 3048 3049 3049 3050 3050 3051 3051 3051 3052 3052 3052 3051 3051 3051 3050 3050 3049 3049 3048 3047 3046 3045 3044 3043 3042 3041 3040 3039 3037 3035 3034 3032 3030 3029 3027 3026
3014 3015 3017 3017 3018 3019 3020 3021 3023 3024 3026 3027 3029 3030 3031 3033 3034 3035 3036 3037 3037 3038 3039 3040 3041 3042 3042 3043 3044 3045 3045 3045 3046 3046 3047 3048 3048 3049 3049 3049 3050 3050 3050 3049 3049 3049 3049 3049 3048 3047 3047 3046 3045 3044 3043 3042 3041 3039 3038 3037 3035 3034 3032 3030 3029 3027 3026 3024 3022
3013 3014 3015 3016 3017 3018 3019 3020 3022 3023 3024 3026 3027 3029 3030 3031 3033 3034 3035 3035 3036 3037 3038 3039 3040 3041 3041 3042 3042 3043 3043 3044 3044 3044 3045 3046 3046 3047 3047 3048 3048 3048 3048 3047 3047 3047 3047 3046 3046 3045 3044 3044 3042 3041 3040 3039 3038 3037 3035 3034 3032 3031 3029 3028 3026 3024 3023 3021 3019
3012 3013 3014 3015 3016 3017 3018 3020 3021 3022 3024 3025 3026 3028 3029 3030 3032 3033 3033 3034 3035 3036 3037 3038 3039 3039 3040 3040 3040 3040 3040 3041 3042 3043 3043 3044 3045 3045 3046 3046 3046 3046 3045 3045 3045 3045 3045 3044 3044 3043 3042 3041 3040 3039 3038 3036 3035 3034 3032 3031 3029 3028 3026 3025 3023 3021 3020 3018 3016
3011 3012 3013 3014 3015 3016 3018 3019 3020 3022 3023 3024 3025 3027 3028 3029 3030 3031 3032 3034 3034 3035 3036 3036 3037 3038 3038 3038 3038 3038 3039 3039 3040 3041 3042 3043 3043 3044 3044 3044 3044 3044 3044 3043 3043 3043 3042 3042 3041 3040 3039 3039 3037 3036 3035 3034 3032 3031 3029 3028 3026 3025 3024 3022 3020 3019 3017 3015 3014
3010 3011 3012 3013 3014 3016 3017 3018 3019 3020 3022 3023 3024 3026 3027 3028 3029 3030 3031 3032 3033 3034 3034 3034 3035 3035 3036 3036 3036 3037 3038 3039 3039 3040 3040 3041 3042 3042 3042 3042 3042 3042 3041 3041 3041 3040 3040 3039 3039 3038 3037 3036 3034 3033 3032 3031 3029 3028 3026 3024 3023 3022 3020 3019 3017 3016 3014 3013 3011
3009 3010 3011 3012 3014 3014 3016 3017 3018 3019 3020 3022 3023 3024 3026 3027 3028 3028 3029 3030 3031 3032 3032 3032 3033 3034 3034 3035 3035 3036 3037 3038 3038 3039 3039 3040 3040 3040 3040 3040 3040 3039 3039 3039 3039 3038 3038 3037 3036 3035 3034 3033 3032 3030 3029 3028 3026 3024 3023 3022 3020 3019 3017 3016 3014 3013 3011 3010 3008
3008 3009 3010 3011 3012 3013 3014 3015 3017 3018 3019 3021 3022 3024 3025 3026 3027 3028 3028 3029 3029 3029 3030 3030 3031 3032 3033 3034 3034 3035 3035 3036 3037 3037 3038 3038 3039 3039 3038 3038 3038 3037 3037 3037 3036 3036 3035 3034 3034 3033 3031 3030 3029 3028 3026 3025 3023 3022 3020 3019 3018 3016 3014 3013 3011 3010 3009 3007 3005
3007 3008 3009 3010 3011 3012 3013 3014 3015 3017 3019 3020 3021 3023 3024 3025 3025 3026 3027 3027 3027 3028 3029 3029 3030 3030 3031 3031 3032 3033 3034 3034 3035 3036 3036 3037 3037 3036 3036 3036 3035 3035 3035 3035 3034 3034 3033 3032 3031 3030 3029 3027 3026 3024 3023 3022 3020 3019 3018 3016 3015 3013 3011 3010 3008 3007 3005 3004 3002
3006 3007 3008 3009 3009 3010 3011 3013 3015 3017 3018 3019 3020 3022 3023 3023 3024 3024 3025 3025 3026 3027 3027 3028 3028 3029 3029 3030 3030 3031 3032 3033 3034 3034 3034 3034 3034 3034 3034 3034 3034 3033 3033 3033 3032 3031 3030 3029 3028 3027 3026 3024 3023 3022 3020 3019 3018 3017 3015 3013 3012 3010 3009 3007 3005 3004 3002 3001 2999
3005 3006 3006 3007 3008 3009 3011 3013 3015 3016 3017 3018 3019 3020 3021 3022 3022 3023 3023 3024 3024 3025 3025 3026 3026 3027 3028 3028 3029 3030 3031 3032 3032 3032 3033 3033 3032 3032 3032 3032 3032 3031 3031 3030 3029 3029 3028 3026 3025 3024 3023 3021 3020 3019 3018 3017 3015 3014 3012 3010 3009 3007 3006 3004 3003 3001 2999 2997 2995
3004 3004 3005 3006 3007 3009 3011 3013 3014 3015 3016 3017 3018 3019 3020 3020 3021 3021 3022 3022 3023 3023 3024 3024 3025 3026 3027 3028 3029 3029 3030 3030 3030 3030 3030 3030 3030 3030 3030 3030 3030 3029 3029 3028 3027 3026 3025 3024 3023 3021 3020 3019 3018 3016 3015 3014 3012 3010 3009 3007 3006 3004 3003 3001 2999 2998 2996 2994 2992
3003 3003 3004 3006 3007 3009 3011 3012 3013 3014 3015 3016 3017 3018 3019 3019 3020 3020 3021 3021 3022 3023 3024 3024 3025 3026 3027 3027 3028 3028 3028 3028 3028 3028 3029 3029 3029 3029 3029 3029 3028 3027 3026 3025 3024 3024 3022 3021 3020 3019 3018 3017 3015 3014 3012 3011 3009 3008 3006 3004 3003 3001 3000 2998 2996 2994 2993 2990 2989
3002 3003 3004 3005 3007 3009 3010 3011 3013 3014 3014 3015 3016 3017 3017 3018 3019 3019 3020 3021 3022 3023 3024 3024 3025 3025 3025 3025 3026 3026 3026 3026 3026 3027 3027 3027 3027 3027 3027 3026 3026 3025 3024 3023 3022 3021 3019 3018 3017 3016 3015 3014 3012 3011 3009 3008 3006 3005 3004 3002 3000 2999 2997 2995 2993 2991 2989 2987 2985
3001 3002 3004 3005 3007 3008 3009 3010 3011 3012 3013 3014 3015 3016 3016 3017 3019 3019 3020 3021 3022 3022 3023 3023 3023 3023 3024 3024 3024 3024 3024 3025 3025 3025 3025 3025 3025 3025 3024 3024 3023 3023 3021 3020 3019 3018 3017 3016 3015 3014 3013 3011 3009 3008 3007 3005 3004 3002 3001 2999 2998 2996 2994 2992 2990 2988 2986 2984 2982
3001 3002 3004 3005 3006 3007 3008 3009 3010 3011 3012 3013 3014 3015 3016 3017 3019 3019 3020 3020 3021 3021 3021 3021 3022 3022 3022 3022 3023 3023 3023 3024 3024 3024 3023 3023 3023 3022 3022 3021 3021 3020 3019 3018 3016 3015 3014 3014 3012 3011 3010 3009 3007 3005 3004 3002 3001 2999 2998 2996 2995 2993 2991 2989 2987 2985 2983 2981 2979
3000 3002 3003 3004 3005 3006 3006 3007 3008 3009 3010 3012 3013 3014 3015 3017 3017 3018 3019 3019 3019 3020 3020 3020 3020 3021 3021 3021 3021 3022 3022 3022 3022 3022 3022 3021 3021 3020 3020 3019 3018 3017 3016 3015 3014 3013 3012 3011 3009 3008 3007 3006 3004 3003 3001 3000 2998 2997 2995 2994 2992 2990 2988 2986 2984 2982 2980 2978 2976
3000 3001 3002 3003 3003 3004 3005 3006 3007 3009 3010 3011 3013 3014 3014 3015 3016 3017 3017 3018 3019 3019 3019 3019 3019 3020 3020 3020 3020 3021 3021 3021 3020 3020 3020 3019 3019 3018 3018 3017 3016 3015 3014 3013 3011 3010 3009 3008 3007 3005 3004 3003 3001 3000 2999 2997 2995 2994 2992 2991 2989 2987 2985 2983 2981 2979 2977 2975 2974
3000 3001 3002 3003 3003 3004 3005 3007 3008 3009 3010 3011 3012 3013 3014 3014 3015 3016 3017 3017 3018 3018 3018 3018 3019 3019 3019 3019 3019 3019 3019 3019 3019 3019 3019 3018 3017 3016 3015 3014 3013 3012 3011 3010 3009 3007 3006 3005 3004 3003 3001 3000 2999 2997 2995 2994 2992 2991 2989 2988 2986 2984 2982 2980 2979 2977 2974 2972 2970
2999 3000 3002 3003 3004 3005 3006 3007 3008 3009 3010 3011 3012 3013 3014 3014 3015 3015 3016 3016 3017 3017 3017 3018 3018 3018 3018 3018 3019 3018 3018 3018 3018 3017 3016 3016 3015 3014 3013 3012 3011 3010 3008 3007 3006 3004 3003 3002 3001 2999 2998 2997 2995 2994 2993 2991 2989 2988 2986 2984 2983 2981 2980 2978 2976 2974 2972 2970 2968